Torna al catalogo

STARLINK-5907

AttivoComunicazioniVLEO
NORAD 56021·PAYLOAD·🇺🇸 United States

Lanciato Mar 24, 2023 da Cape Canaveral Space Force Station

Loading…

Prossimi Passaggi (prossime 24 ore)

TLE

AggiornatoSource: CelesTrak SupGP

Epoca: Sep 14, 2026, 22:33 UTC

1 56021C 23042AM  26257.94006944  .00053321  00000+0  19303-2 0  2571
2 56021  43.0020  56.6019 0002547 266.2167 214.0111 15.27567382    17

Traccia STARLINK-5907 in tempo reale con AllMySat

Download on the App Store